Regional Weather Roundup
Issued by NWS

Home | Current Version | Previous Version | Text Only | Print | Product List | Glossary On
Versions: 1 2 3 4 5 6 7 8 9 10 11 12 13 14 15 16 17 18 19 20 21 22 23 24 25 26 27 28 29 30 31 32 33 34 35 36 37 38 39 40 41 42 43 44 45 46 47 48 49 50
000
ASHW40 PHFO 281830
RWRHI

WEATHER ROUNDUP FOR HAWAII
NATIONAL WEATHER SERVICE HONOLULU HI
800 AM HST SAT MAR 28 2015

THIS IS AN AUTOMATED REPORT THAT HAS NOT BEEN QUALITY CONTROLLED.

NOTE..."FAIR" INDICATES FEW OR NO CLOUDS BELOW 12,000 FEET WITH NO
SIGNIFICANT WEATHER AND/OR OBSTRUCTIONS TO VISIBILITY.

* - THESE SITES REPORT LIMITED FIELDS

HIZ001>004-281900-
KAUAI-NIIHAU-

CITY           SKY/WX    TMP DP  RH WIND       PRES   REMARKS
LIHUE APT      SUNNY     76  60  57 E10       30.20R
PORT ALLEN*      N/A     70 N/A N/A NE6         N/A
POIPU*           N/A     75 N/A N/A NE6         N/A
PRINCEVILLE*     N/A     68 N/A N/A MISG        N/A
KOKOLE POINT*  NOT AVBL
MOLOAA DAIRY*  NOT AVBL
WAIMEA HTS*    NOT AVBL
PUU OPAE*      NOT AVBL
PUU LUA*       NOT AVBL
MAKAHA RIDGE*  NOT AVBL
$$

HIZ005>011-281900-
OAHU-

CITY           SKY/WX    TMP DP  RH WIND       PRES   REMARKS
HONOLULU       MOSUNNY   74  64  71 N5        30.17R
KALAELOA       MOSUNNY   73  63  70 CALM      30.19R
KANEOHE MCB    CLOUDY    75  66  73 E7        30.16R
WHEELER FIELD  FAIR      69  64  85 W2        30.18R
BELLOWS*         N/A    N/A N/A N/A E12         N/A
KAHUKU*          N/A    N/A N/A N/A NE8G14      N/A
WHEELER*       NOT AVBL
WAIANAE HARBOR NOT AVBL
DILLINGHAM*      N/A     68  66  94 MISG        N/A
KAHUKU TRN*      N/A     68  59  73 E7G17       N/A
KAWAILOA*        N/A    N/A N/A N/A E6G12       N/A
KII*             N/A     75  66  73 E15         N/A
MAKUA RANGE*     N/A     72  61  68 E6          N/A
OAHU FOREST NW NOT AVBL
SCHOFIELD BRK*   N/A     57  52  82 MISG        N/A
SCHOFIELD S*   NOT AVBL
WAIANAE VLY*   NOT AVBL
KUAOKALA*      NOT AVBL
HONOULIUULI*   NOT AVBL
MOKUOLOE IS*   NOT AVBL
PALEHUA*       NOT AVBL
WAIAWA PHB*    NOT AVBL
$$

HIZ012>013-281900-
MOLOKAI-

CITY           SKY/WX    TMP DP  RH WIND       PRES   REMARKS
MOLOKAI AIRPT  MOSUNNY   73  67  81 CALM      30.17R
KALAUPAPA      NOT AVBL
MAKAPULAPAI*   NOT AVBL
MOLOKAI 1*     NOT AVBL
PUU ALII*        N/A     58  58 100 CALM        N/A
$$

HIZ016-281900-
KAHOOLAWE-

CITY           SKY/WX    TMP DP  RH WIND       PRES   REMARKS
KAHOOLAWE*     NOT AVBL
HAKIOAWA*        N/A     71  64  79 MISG      30.57R
HONOKANAIA*      N/A     78  67  69 NE13G26   30.16R
KANELOA*         N/A     73  66  78 MISG      29.35R
KEALIALALO*      N/A     73  66  78 E8G25     30.17R
LUA MAKIKA*    NOT AVBL
$$

HIZ014>015-281900-
LANAI-

CITY           SKY/WX    TMP DP  RH WIND       PRES   REMARKS
LANAI CITY     SUNNY     81  64  57 NE5       30.18
LANAI 1*       NOT AVBL
$$

HIZ017>028-281900-
MAUI-

CITY           SKY/WX    TMP DP  RH WIND       PRES   REMARKS
KAHULUI        MOSUNNY   71  61  70 CALM      30.15R
KAPALUA-W MAUI MOSUNNY   72  64  78 NE6       30.16
HANA AIRPORT   CLOUDY    75  70  83 SE8       30.20S
HANA*            N/A     75 N/A N/A E9G17       N/A
HALEAKALA SUMM   N/A     50   0  12 E23         N/A
MAALAEA BAY*   NOT AVBL
HALEAKALA*     NOT AVBL
KAUPO GAP*     NOT AVBL
KULA 1*          N/A     59  -8   6 CALM        N/A
$$

HIZ023>026-281900-
BIG ISLAND OF HAWAII COAST AND LOWER SLOPES-

CITY           SKY/WX    TMP DP  RH WIND       PRES   REMARKS
KAILUA KONA    SUNNY     78  66  66 SE7       30.13R
HILO           CLOUDY    69  67  93 SW6       30.20R
HONOKAA*       NOT AVBL
KAWAIHAE MWT*    N/A     77 N/A N/A NE2         N/A
KAWAIHAE*        N/A     79 N/A N/A CALM        N/A
SOUTH POINT*     N/A     72 N/A N/A NE22G30     N/A
UPOLU AIRPORT*   N/A    N/A N/A N/A E14G26      N/A
KAMUELA*       CLEAR     70  59  68 CALM      30.24S
HAKALAU*         N/A     58  43  58 S6G16       N/A
KALOKO-HONOKO*   N/A     81  68  65 SE5       30.13R
PALI 2*          N/A     64  57  77 NE10G18     N/A
KEALAKOMO*       N/A     73  64  73 NE10G20     N/A
KAUPULEHU*     NOT AVBL
KAPAPALA*        N/A     69  59  71 CALM        N/A
LOWER KAHUKU*    N/A     61  57  88 NE3G18      N/A
PUHE CS*         N/A     75  59  57 NW1         N/A
PUHO CS*         N/A     75  57  52 E3          N/A
PTA KEAMUKU*     N/A     64  50  59 CALM        N/A
WAIKOLOA*      NOT AVBL
$$

HIZ027>028-281900-
BIG ISLAND OF HAWAII INTERIOR AND SUMMMITS-

CITY           SKY/WX    TMP DP  RH WIND       PRES   REMARKS
BRADSHAW FIELD SUNNY     61  29  29 SE14G26   30.40R
MK VISITOR CEN NOT AVBL
MAUNA KEA*       N/A     39  -9  12 SE21        N/A  WCI  29
MAUNA LOA*       N/A     52 -18   5 MISG        N/A
MAUNA LOA 1*   NOT AVBL
PTA KIPUKA*      N/A     61  50  67 S3          N/A
PTA RANGE 17*    N/A     57  48  72 NW3G9       N/A
PTA WEST*        N/A     64  48  55 W3G12       N/A
NENE CABIN*      N/A     52  36  54 E12G23      N/A
AHUMOA*        NOT AVBL
PTA PORTABLE*  NOT AVBL
PUU MALI*      NOT AVBL
$$

HIC003-281900-
NORTHWEST ISLANDS-

CITY           SKY/WX    TMP DP  RH WIND       PRES   REMARKS
MIDWAY ISLAND  PTCLDY    61  52  72 N8        30.29R
MIDWAY NOS*    NOT AVBL
FRENCH FRIGATE NOT AVBL
$$

PHZ110>124-180-281900-
BUOY REPORTS

STATION/POSITION TIME  TEMP    WIND        PRES    WAVE   SWELL
                       AIR SEA DIR/SP/G            HT/PER HT/DIR
                 (UTC) (F)     (DEG/KT/KT) (MB)    (FT/S) (FT/D)
BUOY 51001       NOT AVBL
BUOY 51101       1800   72 72  110/ 10/ 14 1022.6R   5/ 8   5/120
BUOY 51100       1800   73 73  120/ 12/ 16 1023.2R
BUOY 51003       1800   76 77   70/ 12/ 16 1020.8R   7/ 9   7
BUOY 51004       1711   78 77   80/ 19/ 23 1019.8R  10/ 8
BARBERS PT BUOY  NOT AVBL
WAIMEA BAY BUOY  1800      76                N/A     4/10   2/350
KAILUA BAY BUOY  1800      76                N/A     6/ 8   2/ 30
LANAI BUOY       1800      77                N/A     2/14   2/190
BARBERS PT 2     1800      77                N/A     4/15   3/170
PAUWELA MAUI     1800      75                N/A     7/ 8   2/350
HILO             1800      77                N/A     7/ 8   2/350
KANEOHE BAY BUOY 1800      76                N/A     6/ 8   2/ 10
HANALEI KAUAI    1800      76                N/A     6/ 8   2/350
KAHULUI HARBOR   1800   73 77  360/  7/ 10 1020.5R
HONOLULU HARBOR  1800   76 76  150/  1/  2 1021.8R
KILO NALU        NOT AVBL
HILO HARBOR      1800   69 76  220/  7/  8 1022.3R
MOKUOLOE         1800   76 76   90/  6/  9 1021.7S
NAWILIWILI       1800   74 76   60/  9/ 11 1022.3R
WHOTS BUOY       NOT AVBL
BUOY 51028       NOT AVBL
$$

......................KEY........................................
  SKY/WX - SKY CONDITIONS/PRESENT WEATHER
  TMP    - TEMPERATURE IN FAHRENHEIT
  DWPT   - DEWPOINT IN FAHRENHEIT
  RH     - RELATIVE HUMIDITY IN PERCENT
  WIND   - DIRECTION AND SPEED /MPH FOR ISLANDS...KTS FOR BUOYS/
  PRES   - MEAN SEA LEVEL PRESSURE IN INCHES OF HG
  VSB    - VISIBILITY IN MILES
  HX     - HEAT INDEX
  WCI    - WIND CHILL INDEX
  VRB    - VARIABLE WIND DIRECTION
  N/A    - NOT AVAILABLE


USA.gov is the U.S. government's official web portal to all federal, state and local government web resources and services.